Skip Page Navigation
NASA JPL Caltech
NASA Logo - Jet Propulsion Laboratory + View the NASA Portal
+ Center for Near-Earth Object Studies
JPL Home Earth Solar System Stars & Galaxies Technology
JPL Solar System Dynamics
BODIES ORBITS EPHEMERIDES TOOLS PHYSICAL DATA DISCOVERY FAQ SITE MAP
JPL Small-Body Database Browser
Search: [ help ]  
(2007 DB61)
Classification: Aten [NEO]          SPK-ID: 3369098
Ephemeris | Orbit Diagram | Orbital Elements | Mission Design | Physical Parameters | Close-Approach Data ]

[ hide orbit diagram ]
Orbit Diagram
[ switch to new HTML5 viewer ]

Note: This Java-based orbit viewer will eventually be retired.

Note: Make sure you have Java enabled on your browser to see the applet. This applet is provided as a 3D orbit visualization tool. The applet was implemented using two-body methods, and hence should not be used for determining accurate long-term trajectories (over several years or decades) or planetary encounter circumstances. For accurate long-term ephemerides, please instead use our Horizons system.

Note: If the applet is not working, here are some notes that might help.
Orbit Viewer

Additional Notes: the orbits shown in the applet are color coded. The planets are white lines, and the asteroid/comet is a blue line. The bright white line indicates the portion of the orbit that is above the ecliptic plane, and the darker portion is below the ecliptic plane. Likewise for the asteroid/comet orbit, the light blue indicates the portion above the ecliptic plane, and the dark blue the portion below the ecliptic plane.

Orbit Viewer applet originally written and kindly provided by Osamu Ajiki (AstroArts), and further modified by Ron Baalke (JPL).


Orbital Elements at Epoch 2459000.5 (2020-May-31.0) TDB
Reference: JPL 16 (heliocentric ecliptic J2000)
 Element Value Uncertainty (1-sigma)   Units 
e .3646185960769693 2.5655e-07  
a .8113279640423485 3.2101e-09 au
q .5155027008352415 2.0637e-07 au
i 5.380837578302047 8.6843e-06 deg
node 159.0575572807117 2.4668e-05 deg
peri 209.3734113109568 8.2475e-05 deg
M 171.962342207616 0.00013143 deg
tp 2458872.995960072618
(2020-Jan-24.49596007)
9.6726e-05 TDB
period 266.9273620292941
0.73
1.5842e-06
4.337e-09
d
yr
n 1.348681518684066 8.0043e-09 deg/d
Q 1.107153227249455 4.3806e-09 au
  Orbit Determination Parameters
   # obs. used (total)      66  
   data-arc span      6959 days (19.05 yr)  
   first obs. used      1999-03-21  
   last obs. used      2018-04-09  
   planetary ephem.      DE431  
   SB-pert. ephem.      SB431-N16  
   condition code      0  
   norm. resid. RMS      .53629  
   source      ORB  
   producer      Otto Matic  
   solution date      2019-Oct-04 06:12:21  

Additional Information
 Earth MOID = .0128155 au 
 Jupiter MOID = 4.35369 au 
 T_jup = 7.146 
[ show covariance matrix ]

Ephemeris | Orbit Diagram | Orbital Elements | Mission Design | Physical Parameters | Close-Approach Data ]

Physical Parameter Table
Parameter Symbol Value Units Sigma Reference Notes
absolute magnitude H 23.7   n/a MPO441879  

[ hide close-approach data ]
Close-Approach Data   ...sorted by Date/Time (TDB)
Date/Time (TDB) Time Uncertainty
(days_HH:MM)
Body Nominal Distance (au) Minimum Distance (au) Maximum Distance (au) V-relative (km/s) V-infinity (km/s) JD (TDB) Time Uncertainty (minutes) Semi-major axis (km) Semi-minor axis (km) range-LOV angle (deg) N-sigma BP Orbit Ref. Reference Modified
1900-Oct-01 02:06 00:01 Earth 0.485769193537582 0.485768636286588 0.485769750788907 18.9313130729506 18.9310233352739 2415293.587426269 1.2571545889226 151.625219185473 27.540707311399 88.5834298327762 1794129.50768331 T 16 CATAB v2.0f-lin.ifort 2019-Oct-04 06:12:24 2019-Oct-04 06:12
1903-Feb-21 09:56 < 00:01 Earth 0.192877155286391 0.192869634569872 0.19288467600916 15.3103287574602 15.3094264389925 2416166.913660946 0.398589864134073 379.008134048763 11.8885475495618 8.33396562450829 333460.01159393 T 16 CATAB v2.0f-lin.ifort 2019-Oct-04 06:12:24 2019-Oct-04 06:12
1903-Jul-27 22:50 < 00:01 Venus 0.0740744607257392 0.0740730879491155 0.0740758346107206 13.5790884804969 13.5769294222615 2416323.451503223 0.661754085277107 499.06849264372 27.7708438415812 -82.7878965317009 360067.91563127 T 16 CATAB v2.0f-lin.ifort 2019-Oct-04 06:12:24 2019-Oct-04 06:12
1903-Aug-18 12:16 00:01 Earth 0.452723499554339 0.452721890498377 0.452725108625639 15.7158026806191 15.7154281839789 2416345.011301324 1.29231228574758 155.005825329592 10.7872481867681 59.0606463296631 3400152.60037317 T 16 CATAB v2.0f-lin.ifort 2019-Oct-04 06:12:24 2019-Oct-04 06:12
1904-Jul-06 15:28 < 00:01 Venus 0.086095607375707 0.0860907577763006 0.086100457741553 15.2198300404586 15.2181727379232 2416668.144197892 0.674468051503629 473.339483581934 22.6867441167844 59.3885010856287 440852.048278421 T 16 CATAB v2.0f-lin.ifort 2019-Oct-04 06:12:24 2019-Oct-04 06:12
1906-Mar-27 19:25 00:02 Earth 0.117964485213278 0.117963616150047 0.117965354299945 7.60607879846606 7.6031086027698 2417297.309093005 2.09309048794012 130.506738711309 32.0155631904365 -76.658539160156 402233.18214036 T 16 CATAB v2.0f-lin.ifort 2019-Oct-04 06:12:24 2019-Oct-04 06:12
1908-Nov-02 18:23 00:01 Earth 0.456039137508056 0.456037734004658 0.456040541016768 16.4685529553613 16.4681981750762 2418248.265929669 1.16523637646574 123.660645199901 45.297889123103 -62.3814824672268 851931.595960421 T 16 CATAB v2.0f-lin.ifort 2019-Oct-04 06:12:24 2019-Oct-04 06:12
1909-May-01 02:19 < 00:01 Earth 0.218722757010059 0.218716232069174 0.21872928199083 15.5172740627808 15.5164889827316 2418427.596575841 0.407228552259684 358.131818705256 57.2169306157101 -25.0466186654055 216995.949443973 T 16 CATAB v2.0f-lin.ifort 2019-Oct-04 06:12:24 2019-Oct-04 06:12
1911-Sep-20 11:33 00:01 Earth 0.485373036715105 0.48537244757218 0.485373625862913 18.7864908413441 18.7861986317827 2419299.981457144 1.01889062907495 123.250026079044 22.5432386488022 81.0573483522145 2161719.66233198 T 16 CATAB v2.0f-lin.ifort 2019-Oct-04 06:12:24 2019-Oct-04 06:12
1914-Feb-18 21:51 < 00:01 Earth 0.0815286799787917 0.0815225446252602 0.0815348153598699 11.6944205623144 11.6916256052616 2420182.410529160 0.192325887528056 314.952609580134 10.2426708416997 13.7671108797337 284360.934803483 T 16 CATAB v2.0f-lin.ifort 2019-Oct-04 06:12:24 2019-Oct-04 06:12
1914-Aug-05 01:26 00:01 Earth 0.42669085999707 0.426689092096396 0.426692627907373 13.6154877126796 13.6150290714122 2420349.559425970 1.11601667904679 134.576762063442 9.96188892024695 49.2646252717367 2773869.36858269 T 16 CATAB v2.0f-lin.ifort 2019-Oct-04 06:12:24 2019-Oct-04 06:12
1916-Dec-14 12:32 00:01 Earth 0.357517668893265 0.357514931502776 0.357520406285075 8.71546782527066 8.71461266906878 2421212.022235117 1.33078087227253 141.022447298225 34.1399217988299 -15.13994739569 204589.431607222 T 16 CATAB v2.0f-lin.ifort 2019-Oct-04 06:12:24 2019-Oct-04 06:12
1917-Apr-17 21:45 00:01 Earth 0.104353393794388 0.104351813439199 0.104354974192832 7.61891052885987 7.61555849457084 2421336.406482725 1.32874871418399 158.452853842004 50.1908527996472 66.1542398642906 253471.630052888 T 16 CATAB v2.0f-lin.ifort 2019-Oct-04 06:12:24 2019-Oct-04 06:12
1918-Dec-12 05:20 < 00:01 Venus 0.0836832228569879 0.0836807401250232 0.0836857058281646 15.0169500813246 15.0152219617066 2421939.722498348 0.333875017660315 260.867025780215 29.2317166192499 -62.3510902724877 343040.3875631 T 16 CATAB v2.0f-lin.ifort 2019-Oct-04 06:12:24 2019-Oct-04 06:12
1919-Oct-23 20:27 < 00:01 Earth 0.470691112457963 0.470690297335999 0.470691927579954 17.6955624712499 17.6952425700179 2422255.352344772 0.555110644046463 59.882459614773 40.3160495639718 -83.316909576407 1131464.32561997 T 16 CATAB v2.0f-lin.ifort 2019-Oct-04 06:12:24 2019-Oct-04 06:12
1919-Nov-21 20:45 < 00:01 Venus 0.0757872332158471 0.075786197544584 0.0757882690968972 13.9108996963246 13.9088397788101 2422284.364452608 0.355413802805275 229.612751669851 23.6686609075636 78.4089300965947 428457.175662909 T 16 CATAB v2.0f-lin.ifort 2019-Oct-04 06:12:24 2019-Oct-04 06:12
1920-Apr-27 19:33 < 00:01 Earth 0.309842779212899 0.309839533481274 0.309846024946832 18.6445197258848 18.6440584878123 2422442.314322012 0.285704150354765 168.120138069141 60.9855038472316 -16.8817055929931 297098.336483109 T 16 CATAB v2.0f-lin.ifort 2019-Oct-04 06:12:24 2019-Oct-04 06:12
1922-Mar-01 09:20 < 00:01 Earth 0.412611166795794 0.412607874091818 0.41261445949984 22.5180345043099 22.5177477277409 2423114.888594213 0.195061669329465 164.383889531885 11.6761881692648 2.7780872979166 416599.733057293 T 16 CATAB v2.0f-lin.ifort 2019-Oct-04 06:12:24 2019-Oct-04 06:12
1922-Sep-11 04:32 < 00:01 Earth 0.480567300853598 0.480566792194101 0.480567809513942 18.3077149894245 18.3074121394167 2423308.689011314 0.379793699542186 48.9013616867127 16.4350474343187 65.2010642571562 2708264.61856689 T 16 CATAB v2.0f-lin.ifort 2019-Oct-04 06:12:24 2019-Oct-04 06:12
1925-Feb-19 21:29 < 00:01 Earth 0.0156980486022097 0.0156973617458932 0.0156987358531426 9.3578929002103 9.33973732067046 2424201.394814665 0.317230099545959 129.653032859133 3.90122769278781 74.7795109048245 673726.328041534 T 16 CATAB v2.0f-lin.ifort 2019-Oct-04 06:12:24 2019-Oct-04 06:12
1925-Jul-25 10:20 < 00:01 Earth 0.40152478809349 0.401524261441589 0.40152531474619 11.6979302305038 11.6973629452442 2424356.930349998 0.42068695480694 46.8367727783256 18.1635733483029 63.950096574621 1638279.37816691 T 16 CATAB v2.0f-lin.ifort 2019-Oct-04 06:12:24 2019-Oct-04 06:12
1927-Dec-04 04:53 00:02 Earth 0.387962753589624 0.387958817124204 0.387966690058925 11.0607383709647 11.060117429882 2425218.703182493 1.6005639069003 205.694861642072 17.7995140874699 -17.5039096540655 485008.953080684 T 16 CATAB v2.0f-lin.ifort 2019-Oct-04 06:12:24 2019-Oct-04 06:12
